| time (UTC) | temp F | wind direction | speed MPH | gust MPH | rain 1hr in | rain 24hr in | rain mn in | humidity % | barometer mb |
| 20260903023317 | 65 | 148 | 1.0 | 1.0 | 0.00 | 0.02 | 0.02 | 96 | 1020.8 |
| 20260903022812 | 65 | 148 | 1.0 | 1.0 | 0.00 | 0.02 | 0.02 | 96 | 1020.6 |
| 20260903022310 | 65 | 148 | 1.0 | 1.0 | 0.00 | 0.02 | 0.02 | 96 | 1020.5 |
| 20260903021805 | 65 | 148 | 1.0 | 1.0 | 0.05 | 0.02 | 0.02 | 96 | 1020.8 |
| 20260903021301 | 65 | 99 | 1.0 | 1.0 | 0.05 | 0.02 | 0.02 | 96 | 1020.7 |
| 20260903020800 | 65 | 120 | 3.0 | 5.0 | 0.00 | 0.01 | 0.01 | 96 | 1020.8 |
| 20260903020255 | 65 | 101 | 3.0 | 5.0 | 0.00 | 0.01 | 0.01 | 96 | 1020.7 |
| 20260903015750 | 65 | 181 | 1.0 | 1.0 | 0.07 | 0.01 | 0.01 | 96 | 1020.9 |
| 20260903015246 | 65 | 10 | 0.0 | 0.0 | 0.00 | 0.00 | 0.00 | 95 | 1021.5 |
| 20260903014741 | 65 | 50 | 0.0 | 0.0 | 0.00 | 0.00 | 0.00 | 95 | 1021.4 |
| 20260903014240 | 65 | 19 | 0.0 | 1.0 | 0.00 | 0.00 | 0.00 | 95 | 1022.0 |
| 20260903013736 | 65 | 24 | 0.0 | 1.0 | 0.00 | 0.00 | 0.00 | 95 | 1022.0 |
| 20260903013235 | 65 | 25 | 0.0 | 1.0 | 0.00 | 0.00 | 0.00 | 95 | 1022.1 |
| 20260903012733 | 65 | 298 | 0.0 | 0.0 | 0.00 | 0.00 | 0.00 | 95 | 1022.0 |
| 20260903012228 | 65 | 325 | 0.0 | 1.0 | 0.00 | 0.00 | 0.00 | 95 | 1022.2 |
| 20260903011727 | 65 | 16 | 0.0 | 2.0 | 0.00 | 0.00 | 0.00 | 95 | 1022.0 |
| 20260903011221 | 65 | 44 | 1.0 | 2.0 | 0.00 | 0.00 | 0.00 | 95 | 1021.6 |
| 20260903010712 | 65 | 114 | 2.0 | 2.0 | 0.00 | 0.00 | 0.00 | 95 | 1022.0 |
| 20260903010211 | 66 | 47 | 0.0 | 2.0 | 0.00 | 0.00 | 0.00 | 95 | 1021.7 |
| 20260903005710 | 66 | 36 | 0.0 | 2.0 | 0.00 | 0.00 | 0.00 | 95 | 1021.6 |
| 20260903005205 | 66 | 142 | 5.0 | 6.0 | 0.00 | 0.00 | 0.00 | 95 | 1021.6 |
| 20260903004701 | 65 | 124 | 3.0 | 7.0 | 0.00 | 0.00 | 0.00 | 95 | 1021.7 |
| 20260903004156 | 65 | 101 | 2.0 | 7.0 | 0.00 | 0.00 | 0.00 | 95 | 1021.6 |
| 20260903003652 | 65 | 102 | 2.0 | 5.0 | 0.00 | 0.00 | 0.00 | 95 | 1021.7 |
| 20260903003147 | 65 | 34 | 1.0 | 5.0 | 0.00 | 0.00 | 0.00 | 95 | 1022.1 |
| 20260903002642 | 66 | 161 | 1.0 | 3.0 | 0.00 | 0.00 | 0.00 | 95 | 1021.8 |
| 20260903002136 | 66 | 268 | 0.0 | 1.0 | 0.00 | 0.00 | 0.00 | 95 | 1021.9 |
| 20260903001630 | 66 | 5 | 2.0 | 3.0 | 0.00 | 0.00 | 0.00 | 95 | 1021.8 |
| 20260903001125 | 66 | 53 | 1.0 | 2.0 | 0.00 | 0.00 | 0.00 | 95 | 1021.6 |
| 20260903000621 | 66 | 50 | 0.0 | 1.0 | 0.00 | 0.00 | 0.00 | 95 | 1021.6 |
| 20260903000120 | 66 | 131 | 1.0 | 2.0 | 0.00 | 0.00 | 0.00 | 95 | 1021.2 |
| 20260902235619 | 66 | 131 | 1.0 | 2.0 | 0.00 | 0.00 | 0.00 | 95 | 1021.1 |
| 20260902235114 | 66 | 95 | 1.0 | 3.0 | 0.00 | 0.00 | 0.00 | 95 | 1021.2 |
| 20260902234608 | 66 | 8 | 3.0 | 5.0 | 0.00 | 0.00 | 0.00 | 95 | 1021.4 |
| 20260902234106 | 66 | 130 | 1.0 | 2.0 | 0.00 | 0.00 | 0.00 | 95 | 1021.2 |
| 20260902233602 | 66 | 42 | 2.0 | 3.0 | 0.00 | 0.00 | 0.00 | 95 | 1021.3 |
| 20260902233056 | 66 | 76 | 4.0 | 5.0 | 0.00 | 0.00 | 0.00 | 95 | 1020.6 |
| 20260902232555 | 66 | 149 | 5.0 | 7.0 | 0.00 | 0.00 | 0.00 | 95 | 1020.3 |
| 20260902232050 | 66 | 75 | 2.0 | 6.0 | 0.00 | 0.00 | 0.00 | 95 | 1020.8 |
| 20260902231545 | 66 | 103 | 4.0 | 11.0 | 0.00 | 0.00 | 0.00 | 95 | 1020.4 |
| 20260902231044 | 66 | 78 | 7.0 | 9.0 | 0.00 | 0.00 | 0.00 | 95 | 1020.2 |
| 20260902230545 | 66 | 113 | 4.0 | 13.0 | 0.00 | 0.00 | 0.00 | 95 | 1020.3 |
| 20260902230044 | 66 | 162 | 8.0 | 9.0 | 0.00 | 0.00 | 0.00 | 94 | 1020.8 |
| 20260902225539 | 66 | 129 | 7.0 | 13.0 | 0.00 | 0.00 | 0.00 | 94 | 1020.6 |
| 20260902225039 | 67 | 139 | 4.0 | 9.0 | 0.00 | 0.00 | 0.00 | 94 | 1021.0 |
| 20260902224537 | 67 | 97 | 3.0 | 9.0 | 0.00 | 0.00 | 0.00 | 94 | 1021.1 |
| 20260902224034 | 67 | 124 | 4.0 | 8.0 | 0.00 | 0.00 | 0.00 | 94 | 1021.7 |
| 20260902223530 | 67 | 135 | 3.0 | 7.0 | 0.00 | 0.00 | 0.00 | 94 | 1021.8 |
| 20260902223028 | 67 | 85 | 6.0 | 9.0 | 0.00 | 0.00 | 0.00 | 94 | 1022.0 |
| 20260902222527 | 67 | 74 | 2.0 | 3.0 | 0.00 | 0.00 | 0.00 | 94 | 1022.3 |
| 20260902222026 | 68 | 131 | 3.0 | 6.0 | 0.00 | 0.00 | 0.00 | 94 | 1022.3 |
| 20260902221521 | 68 | 88 | 1.0 | 10.0 | 0.00 | 0.00 | 0.00 | 93 | 1022.3 |
| 20260902221016 | 68 | 166 | 5.0 | 7.0 | 0.00 | 0.00 | 0.00 | 93 | 1022.5 |
| 20260902220511 | 68 | 49 | 7.0 | 9.0 | 0.00 | 0.00 | 0.00 | 93 | 1022.4 |
| 20260902220006 | 68 | 354 | 1.0 | 9.0 | 0.00 | 0.00 | 0.00 | 93 | 1022.6 |
| 20260902215502 | 69 | 41 | 4.0 | 8.0 | 0.00 | 0.00 | 0.00 | 92 | 1022.3 |
| 20260902214958 | 69 | 29 | 1.0 | 6.0 | 0.00 | 0.00 | 0.00 | 93 | 1022.4 |
| 20260902214457 | 69 | 346 | 1.0 | 8.0 | 0.00 | 0.00 | 0.00 | 93 | 1022.5 |
| 20260902213955 | 69 | 67 | 3.0 | 6.0 | 0.00 | 0.00 | 0.00 | 93 | 1022.3 |
| 20260902213452 | 69 | 77 | 1.0 | 6.0 | 0.00 | 0.00 | 0.00 | 93 | 1022.4 |
| 20260902212951 | 69 | 48 | 1.0 | 1.0 | 0.00 | 0.00 | 0.00 | 93 | 1022.5 |
| 20260902212447 | 69 | 36 | 1.0 | 1.0 | 0.00 | 0.00 | 0.00 | 93 | 1022.7 |
| 20260902211943 | 69 | 66 | 1.0 | 1.0 | 0.00 | 0.00 | 0.00 | 92 | 1022.6 |
| 20260902211438 | 70 | 119 | 4.0 | 5.0 | 0.00 | 0.00 | 0.00 | 91 | 1022.5 |
| 20260902210933 | 70 | 104 | 3.0 | 5.0 | 0.00 | 0.00 | 0.00 | 91 | 1022.5 |
| 20260902210428 | 70 | 57 | 1.0 | 1.0 | 0.00 | 0.00 | 0.00 | 91 | 1022.5 |
| 20260902205921 | 70 | 40 | 1.0 | 6.0 | 0.00 | 0.00 | 0.00 | 92 | 1022.4 |
| 20260902205416 | 70 | 80 | 1.0 | 3.0 | 0.00 | 0.00 | 0.00 | 92 | 1022.5 |
| 20260902204911 | 70 | 193 | 0.0 | 2.0 | 0.00 | 0.00 | 0.00 | 92 | 1022.4 |
| 20260902204405 | 70 | 114 | 1.0 | 1.0 | 0.00 | 0.00 | 0.00 | 91 | 1022.9 |
| 20260902203901 | 70 | 118 | 3.0 | 5.0 | 0.00 | 0.00 | 0.00 | 91 | 1022.7 |
| 20260902203356 | 69 | 156 | 1.0 | 5.0 | 0.00 | 0.00 | 0.00 | 92 | 1022.6 |
| 20260902202850 | 70 | 106 | 3.0 | 7.0 | 0.00 | 0.00 | 0.00 | 91 | 1022.6 |
| 20260902202346 | 70 | 176 | 1.0 | 3.0 | 0.00 | 0.00 | 0.00 | 92 | 1022.8 |
| 20260902201843 | 70 | 118 | 5.0 | 7.0 | 0.00 | 0.00 | 0.00 | 91 | 1022.9 |
| 20260902201342 | 70 | 341 | 1.0 | 2.0 | 0.00 | 0.00 | 0.00 | 92 | 1022.8 |
| 20260902200837 | 70 | 31 | 1.0 | 1.0 | 0.00 | 0.00 | 0.00 | 92 | 1022.8 |
| 20260902200333 | 69 | 63 | 1.0 | 6.0 | 0.00 | 0.00 | 0.00 | 92 | 1022.9 |
| 20260902195828 | 69 | 34 | 1.0 | 3.0 | 0.00 | 0.00 | 0.00 | 93 | 1023.0 |
| 20260902195327 | 69 | 102 | 4.0 | 5.0 | 0.00 | 0.00 | 0.00 | 92 | 1022.8 |
| 20260902194822 | 69 | 44 | 2.0 | 6.0 | 0.00 | 0.00 | 0.00 | 91 | 1022.9 |
| 20260902194317 | 69 | 32 | 3.0 | 6.0 | 0.00 | 0.00 | 0.00 | 92 | 1023.1 |
| 20260902193812 | 69 | 116 | 1.0 | 3.0 | 0.00 | 0.00 | 0.00 | 92 | 1023.2 |
| 20260902193308 | 70 | 72 | 3.0 | 3.0 | 0.00 | 0.00 | 0.00 | 91 | 1023.4 |
| 20260902192807 | 70 | 248 | 2.0 | 5.0 | 0.00 | 0.00 | 0.00 | 91 | 1023.1 |
| 20260902192307 | 70 | 80 | 2.0 | 6.0 | 0.00 | 0.00 | 0.00 | 91 | 1023.2 |
| 20260902191805 | 70 | 24 | 3.0 | 5.0 | 0.00 | 0.00 | 0.00 | 91 | 1023.4 |
| 20260902191300 | 70 | 147 | 3.0 | 6.0 | 0.00 | 0.00 | 0.00 | 92 | 1023.3 |
| 20260902190756 | 69 | 87 | 2.0 | 9.0 | 0.00 | 0.00 | 0.00 | 93 | 1023.2 |
| 20260902190255 | 69 | 92 | 3.0 | 5.0 | 0.00 | 0.00 | 0.00 | 92 | 1023.2 |
| 20260902185751 | 68 | 87 | 2.0 | 3.0 | 0.00 | 0.00 | 0.00 | 93 | 1023.2 |
| 20260902185246 | 68 | 75 | 1.0 | 6.0 | 0.00 | 0.00 | 0.00 | 94 | 1023.6 |
| 20260902184743 | 68 | 38 | 3.0 | 5.0 | 0.00 | 0.00 | 0.00 | 93 | 1023.5 |
| 20260902184242 | 68 | 43 | 4.0 | 5.0 | 0.00 | 0.00 | 0.00 | 93 | 1023.5 |
| 20260902183738 | 68 | 30 | 3.0 | 5.0 | 0.00 | 0.00 | 0.00 | 92 | 1023.8 |
| 20260902183234 | 68 | 32 | 1.0 | 2.0 | 0.00 | 0.00 | 0.00 | 93 | 1023.5 |
| 20260902182730 | 68 | 352 | 1.0 | 5.0 | 0.00 | 0.00 | 0.00 | 93 | 1023.8 |
| 20260902182226 | 68 | 78 | 3.0 | 5.0 | 0.00 | 0.00 | 0.00 | 94 | 1023.6 |
| 20260902181723 | 68 | 103 | 1.0 | 1.0 | 0.00 | 0.00 | 0.00 | 94 | 1023.9 |
| 20260902181222 | 68 | 103 | 1.0 | 1.0 | 0.00 | 0.00 | 0.00 | 94 | 1023.8 |
| 20260902180717 | 67 | 23 | 3.0 | 5.0 | 0.00 | 0.00 | 0.00 | 94 | 1023.8 |
| 20260902180213 | 67 | 130 | 6.0 | 7.0 | 0.00 | 0.00 | 0.00 | 94 | 1023.5 |
| 20260902175708 | 67 | 71 | 2.0 | 8.0 | 0.00 | 0.00 | 0.00 | 94 | 1023.4 |
| 20260902175204 | 67 | 65 | 1.0 | 8.0 | 0.00 | 0.00 | 0.00 | 94 | 1023.3 |
| 20260902174659 | 67 | 48 | 3.0 | 3.0 | 0.00 | 0.00 | 0.00 | 94 | 1023.3 |
| 20260902174155 | 66 | 73 | 4.0 | 6.0 | 0.00 | 0.00 | 0.00 | 94 | 1023.5 |
| 20260902173650 | 66 | 169 | 2.0 | 2.0 | 0.00 | 0.00 | 0.00 | 95 | 1023.6 |
| 20260902173145 | 66 | 169 | 2.0 | 2.0 | 0.00 | 0.00 | 0.00 | 95 | 1023.9 |
| 20260902172639 | 65 | 255 | 1.0 | 1.0 | 0.00 | 0.00 | 0.00 | 95 | 1023.9 |
| 20260902172139 | 65 | 122 | 2.0 | 10.0 | 0.00 | 0.00 | 0.00 | 95 | 1023.9 |
| 20260902171634 | 65 | 4 | 1.0 | 3.0 | 0.00 | 0.00 | 0.00 | 95 | 1023.5 |
| 20260902171130 | 65 | 326 | 3.0 | 5.0 | 0.00 | 0.00 | 0.00 | 95 | 1023.6 |
| 20260902170625 | 65 | 95 | 4.0 | 10.0 | 0.00 | 0.00 | 0.00 | 95 | 1023.1 |
| 20260902170121 | 65 | 67 | 3.0 | 11.0 | 0.00 | 0.00 | 0.00 | 96 | 1022.8 |
| 20260902165621 | 65 | 84 | 1.0 | 6.0 | 0.00 | 0.00 | 0.00 | 96 | 1023.2 |
| 20260902165115 | 64 | 72 | 2.0 | 5.0 | 0.00 | 0.00 | 0.00 | 96 | 1023.5 |
| 20260902164610 | 64 | 286 | 0.0 | 1.0 | 0.00 | 0.00 | 0.00 | 96 | 1024.0 |
| 20260902164109 | 64 | 57 | 1.0 | 2.0 | 0.00 | 0.00 | 0.00 | 96 | 1024.0 |
| 20260902163605 | 64 | 129 | 4.0 | 7.0 | 0.00 | 0.00 | 0.00 | 96 | 1023.9 |
| 20260902163103 | 64 | 115 | 3.0 | 6.0 | 0.00 | 0.00 | 0.00 | 96 | 1023.9 |
| 20260902162603 | 64 | 118 | 4.0 | 9.0 | 0.00 | 0.00 | 0.00 | 96 | 1023.6 |
| 20260902162058 | 64 | 125 | 2.0 | 3.0 | 0.00 | 0.00 | 0.00 | 96 | 1024.0 |
| 20260902161552 | 65 | 244 | 1.0 | 2.0 | 0.00 | 0.00 | 0.00 | 96 | 1024.6 |
| 20260902161048 | 65 | 58 | 3.0 | 3.0 | 0.00 | 0.00 | 0.00 | 96 | 1024.6 |
| 20260902160544 | 65 | 55 | 1.0 | 6.0 | 0.00 | 0.00 | 0.00 | 96 | 1024.4 |
| 20260902160039 | 65 | 116 | 2.0 | 3.0 | 0.00 | 0.00 | 0.00 | 95 | 1024.5 |
| 20260902155532 | 65 | 92 | 1.0 | 2.0 | 0.00 | 0.00 | 0.00 | 96 | 1024.5 |
| 20260902155031 | 65 | 158 | 1.0 | 2.0 | 0.00 | 0.00 | 0.00 | 96 | 1024.4 |
| 20260902154527 | 65 | 40 | 2.0 | 3.0 | 0.00 | 0.00 | 0.00 | 96 | 1024.4 |
| 20260902154021 | 65 | 102 | 6.0 | 8.0 | 0.00 | 0.00 | 0.00 | 95 | 1024.2 |
| 20260902153520 | 65 | 10 | 2.0 | 5.0 | 0.00 | 0.00 | 0.00 | 95 | 1024.2 |
| 20260902153015 | 65 | 80 | 1.0 | 3.0 | 0.00 | 0.00 | 0.00 | 95 | 1024.3 |
| 20260902152512 | 65 | 105 | 0.0 | 1.0 | 0.00 | 0.00 | 0.00 | 95 | 1024.3 |
| 20260902152007 | 65 | 122 | 1.0 | 3.0 | 0.00 | 0.00 | 0.00 | 96 | 1024.3 |
| 20260902151503 | 65 | 180 | 0.0 | 7.0 | 0.00 | 0.00 | 0.00 | 96 | 1024.5 |
| 20260902150957 | 65 | 118 | 2.0 | 6.0 | 0.00 | 0.00 | 0.00 | 95 | 1024.7 |
| 20260902150452 | 65 | 29 | 1.0 | 3.0 | 0.00 | 0.00 | 0.00 | 96 | 1024.8 |
| 20260902145952 | 65 | 19 | 2.0 | 3.0 | 0.00 | 0.00 | 0.00 | 95 | 1025.0 |
| 20260902145447 | 65 | 114 | 1.0 | 3.0 | 0.00 | 0.00 | 0.00 | 95 | 1024.8 |
| 20260902144941 | 65 | 127 | 1.0 | 5.0 | 0.00 | 0.00 | 0.00 | 95 | 1025.0 |
| 20260902144437 | 65 | 41 | 1.0 | 2.0 | 0.00 | 0.00 | 0.00 | 95 | 1024.9 |
| 20260902143932 | 64 | 164 | 2.0 | 2.0 | 0.00 | 0.00 | 0.00 | 95 | 1025.1 |
| 20260902143427 | 65 | 134 | 1.0 | 5.0 | 0.00 | 0.00 | 0.00 | 96 | 1025.0 |
| 20260902142923 | 64 | 347 | 1.0 | 6.0 | 0.00 | 0.00 | 0.00 | 96 | 1024.6 |
| 20260902142419 | 64 | 32 | 1.0 | 1.0 | 0.00 | 0.00 | 0.00 | 96 | 1024.9 |
| 20260902141914 | 64 | 38 | 0.0 | 2.0 | 0.00 | 0.00 | 0.00 | 96 | 1024.8 |
| 20260902141409 | 64 | 32 | 0.0 | 5.0 | 0.00 | 0.00 | 0.00 | 96 | 1024.7 |
| 20260902140908 | 65 | 111 | 2.0 | 3.0 | 0.00 | 0.00 | 0.00 | 96 | 1024.7 |
| 20260902140404 | 65 | 113 | 1.0 | 3.0 | 0.00 | 0.00 | 0.00 | 96 | 1024.6 |
| 20260902135858 | 65 | 121 | 1.0 | 3.0 | 0.00 | 0.00 | 0.00 | 96 | 1024.8 |
| 20260902135354 | 65 | 55 | 1.0 | 1.0 | 0.00 | 0.00 | 0.00 | 96 | 1024.8 |
| 20260902134853 | 64 | 31 | 0.0 | 1.0 | 0.00 | 0.00 | 0.00 | 96 | 1024.8 |
| 20260902134349 | 64 | 31 | 0.0 | 0.0 | 0.00 | 0.00 | 0.00 | 96 | 1024.4 |
| 20260902133843 | 64 | 64 | 1.0 | 2.0 | 0.00 | 0.00 | 0.00 | 96 | 1024.5 |
| 20260902133343 | 64 | 359 | 1.0 | 1.0 | 0.00 | 0.00 | 0.00 | 96 | 1024.6 |
| 20260902132838 | 64 | 17 | 0.0 | 0.0 | 0.00 | 0.00 | 0.00 | 96 | 1024.6 |
| 20260902132333 | 64 | 354 | 0.0 | 2.0 | 0.00 | 0.00 | 0.00 | 96 | 1024.3 |
| 20260902131829 | 64 | 55 | 1.0 | 2.0 | 0.00 | 0.00 | 0.00 | 96 | 1024.4 |
| 20260902131326 | 64 | 288 | 0.0 | 1.0 | 0.00 | 0.00 | 0.00 | 96 | 1024.5 |
| 20260902130825 | 64 | 17 | 0.0 | 1.0 | 0.00 | 0.00 | 0.00 | 96 | 1024.7 |
| 20260902130321 | 64 | 3 | 1.0 | 1.0 | 0.00 | 0.00 | 0.00 | 96 | 1024.6 |
| 20260902125816 | 64 | 66 | 1.0 | 2.0 | 0.00 | 0.00 | 0.00 | 96 | 1024.9 |
| 20260902125312 | 64 | 66 | 1.0 | 2.0 | 0.00 | 0.00 | 0.00 | 96 | 1024.9 |
| 20260902124808 | 64 | 35 | 1.0 | 2.0 | 0.00 | 0.00 | 0.00 | 96 | 1024.7 |
| 20260902124303 | 63 | 105 | 3.0 | 5.0 | 0.00 | 0.00 | 0.00 | 96 | 1024.4 |
| 20260902123758 | 64 | 122 | 3.0 | 3.0 | 0.00 | 0.00 | 0.00 | 97 | 1024.5 |
| 20260902123254 | 63 | 29 | 0.0 | 1.0 | 0.00 | 0.00 | 0.00 | 97 | 1024.4 |
| 20260902122752 | 63 | 95 | 1.0 | 1.0 | 0.00 | 0.00 | 0.00 | 97 | 1024.5 |
| 20260902122249 | 63 | 18 | 1.0 | 1.0 | 0.00 | 0.00 | 0.00 | 97 | 1024.5 |
| 20260902121743 | 63 | 18 | 1.0 | 1.0 | 0.00 | 0.00 | 0.00 | 97 | 1024.3 |
| 20260902121238 | 63 | 18 | 1.0 | 1.0 | 0.00 | 0.00 | 0.00 | 97 | 1024.5 |
| 20260902120733 | 63 | 18 | 1.0 | 1.0 | 0.00 | 0.00 | 0.00 | 97 | 1024.2 |
| 20260902120229 | 63 | 16 | 1.0 | 2.0 | 0.00 | 0.00 | 0.00 | 97 | 1024.2 |
| 20260902115724 | 63 | 85 | 2.0 | 3.0 | 0.00 | 0.00 | 0.00 | 97 | 1024.2 |
| 20260902115220 | 63 | 109 | 1.0 | 1.0 | 0.00 | 0.00 | 0.00 | 97 | 1024.2 |
| 20260902114716 | 63 | 49 | 0.0 | 1.0 | 0.00 | 0.00 | 0.00 | 97 | 1024.3 |
| 20260902114211 | 63 | 91 | 2.0 | 3.0 | 0.00 | 0.00 | 0.00 | 97 | 1024.1 |
| 20260902113706 | 63 | 67 | 3.0 | 3.0 | 0.00 | 0.00 | 0.00 | 97 | 1024.0 |
| 20260902113201 | 63 | 67 | 3.0 | 3.0 | 0.00 | 0.00 | 0.00 | 97 | 1024.1 |
| 20260902112701 | 62 | 88 | 3.0 | 5.0 | 0.00 | 0.00 | 0.00 | 97 | 1024.0 |
| 20260902112158 | 62 | 77 | 3.0 | 3.0 | 0.00 | 0.00 | 0.00 | 97 | 1024.1 |
| 20260902111654 | 62 | 82 | 2.0 | 2.0 | 0.00 | 0.00 | 0.00 | 97 | 1023.8 |
| 20260902111149 | 62 | 35 | 4.0 | 7.0 | 0.00 | 0.00 | 0.00 | 97 | 1023.9 |
| 20260902110645 | 62 | 35 | 1.0 | 6.0 | 0.00 | 0.00 | 0.00 | 97 | 1024.0 |
| 20260902110141 | 62 | 64 | 1.0 | 2.0 | 0.00 | 0.00 | 0.00 | 98 | 1024.0 |
| 20260902105640 | 62 | 347 | 0.0 | 0.0 | 0.00 | 0.00 | 0.00 | 98 | 1024.3 |
| 20260902105136 | 62 | 20 | 1.0 | 1.0 | 0.00 | 0.00 | 0.00 | 97 | 1024.5 |
| 20260902104631 | 62 | 20 | 1.0 | 1.0 | 0.00 | 0.00 | 0.00 | 97 | 1024.4 |
| 20260902104126 | 62 | 20 | 1.0 | 1.0 | 0.00 | 0.00 | 0.00 | 97 | 1024.4 |
| 20260902103625 | 62 | 91 | 1.0 | 1.0 | 0.00 | 0.00 | 0.00 | 97 | 1024.5 |
| 20260902103121 | 62 | 35 | 0.0 | 0.0 | 0.00 | 0.00 | 0.00 | 97 | 1024.5 |
| 20260902102617 | 62 | 42 | 1.0 | 1.0 | 0.00 | 0.00 | 0.00 | 97 | 1024.2 |
| 20260902102114 | 62 | 77 | 2.0 | 2.0 | 0.00 | 0.00 | 0.00 | 97 | 1024.1 |
| 20260902101609 | 63 | 107 | 2.0 | 2.0 | 0.00 | 0.00 | 0.00 | 97 | 1024.2 |
| 20260902101109 | 63 | 27 | 1.0 | 1.0 | 0.00 | 0.00 | 0.00 | 97 | 1024.4 |
| 20260902100603 | 62 | 41 | 0.0 | 0.0 | 0.00 | 0.00 | 0.00 | 97 | 1024.3 |
| 20260902100058 | 63 | 20 | 0.0 | 1.0 | 0.00 | 0.00 | 0.00 | 97 | 1024.3 |
| 20260902095557 | 63 | 79 | 2.0 | 3.0 | 0.00 | 0.00 | 0.00 | 97 | 1024.2 |
| 20260902095056 | 63 | 26 | 1.0 | 2.0 | 0.00 | 0.00 | 0.00 | 97 | 1023.9 |
| 20260902094547 | 63 | 119 | 2.0 | 2.0 | 0.00 | 0.00 | 0.00 | 97 | 1024.2 |
| 20260902094042 | 63 | 12 | 0.0 | 3.0 | 0.00 | 0.00 | 0.00 | 97 | 1024.3 |
| 20260902093537 | 63 | 0 | 0.0 | 2.0 | 0.00 | 0.00 | 0.00 | 97 | 1024.0 |
| 20260902093037 | 63 | 229 | 0.0 | 1.0 | 0.00 | 0.00 | 0.00 | 97 | 1024.1 |
| 20260902092532 | 63 | 90 | 2.0 | 2.0 | 0.00 | 0.00 | 0.00 | 97 | 1024.0 |
| 20260902092027 | 63 | 30 | 0.0 | 1.0 | 0.00 | 0.00 | 0.00 | 97 | 1024.0 |
| 20260902091522 | 63 | 334 | 1.0 | 1.0 | 0.00 | 0.00 | 0.00 | 97 | 1024.0 |
| 20260902091018 | 63 | 32 | 0.0 | 1.0 | 0.00 | 0.00 | 0.00 | 97 | 1024.0 |
| 20260902090514 | 63 | 131 | 0.0 | 2.0 | 0.00 | 0.00 | 0.00 | 97 | 1023.9 |
| 20260902090013 | 63 | 34 | 1.0 | 1.0 | 0.00 | 0.00 | 0.00 | 97 | 1024.0 |
| 20260902085513 | 63 | 10 | 0.0 | 0.0 | 0.00 | 0.00 | 0.00 | 97 | 1024.0 |
| 20260902085008 | 63 | 83 | 1.0 | 1.0 | 0.00 | 0.00 | 0.00 | 97 | 1023.9 |
| 20260902084504 | 63 | 71 | 1.0 | 2.0 | 0.00 | 0.00 | 0.00 | 97 | 1023.8 |
| 20260902084000 | 63 | 23 | 0.0 | 1.0 | 0.00 | 0.00 | 0.00 | 97 | 1023.6 |
| 20260902083455 | 63 | 14 | 0.0 | 1.0 | 0.00 | 0.00 | 0.00 | 97 | 1023.6 |
| 20260902082949 | 63 | 4 | 0.0 | 5.0 | 0.00 | 0.00 | 0.00 | 97 | 1023.5 |
| 20260902082445 | 63 | 1 | 0.0 | 1.0 | 0.00 | 0.00 | 0.00 | 97 | 1023.6 |
| 20260902081941 | 63 | 115 | 2.0 | 3.0 | 0.00 | 0.00 | 0.00 | 97 | 1023.5 |
| 20260902081437 | 63 | 46 | 1.0 | 1.0 | 0.00 | 0.00 | 0.00 | 97 | 1023.6 |
| 20260902080932 | 63 | 11 | 0.0 | 5.0 | 0.00 | 0.00 | 0.00 | 97 | 1023.4 |
| 20260902080428 | 63 | 114 | 1.0 | 2.0 | 0.00 | 0.00 | 0.00 | 97 | 1023.4 |
| 20260902075928 | 63 | 346 | 1.0 | 5.0 | 0.00 | 0.00 | 0.00 | 97 | 1023.3 |
| 20260902075424 | 63 | 45 | 0.0 | 2.0 | 0.00 | 0.00 | 0.00 | 97 | 1023.5 |
| 20260902074919 | 63 | 80 | 3.0 | 5.0 | 0.00 | 0.00 | 0.00 | 97 | 1023.4 |
| 20260902074414 | 64 | 36 | 1.0 | 2.0 | 0.00 | 0.00 | 0.00 | 97 | 1023.8 |
| 20260902073909 | 64 | 13 | 1.0 | 2.0 | 0.00 | 0.00 | 0.00 | 97 | 1023.4 |
| 20260902073405 | 64 | 37 | 0.0 | 5.0 | 0.00 | 0.00 | 0.00 | 97 | 1023.4 |
| 20260902072901 | 64 | 99 | 1.0 | 5.0 | 0.00 | 0.00 | 0.00 | 97 | 1023.4 |
| 20260902072356 | 64 | 61 | 1.0 | 5.0 | 0.00 | 0.00 | 0.00 | 97 | 1023.3 |
| 20260902071853 | 64 | 124 | 1.0 | 2.0 | 0.00 | 0.00 | 0.00 | 97 | 1023.5 |
| 20260902071352 | 64 | 83 | 0.0 | 5.0 | 0.00 | 0.00 | 0.00 | 98 | 1023.3 |
| 20260902070849 | 64 | 64 | 1.0 | 2.0 | 0.00 | 0.00 | 0.00 | 97 | 1023.6 |
| 20260902070345 | 64 | 77 | 1.0 | 5.0 | 0.00 | 0.00 | 0.00 | 98 | 1023.3 |
| 20260902065842 | 64 | 54 | 0.0 | 2.0 | 0.00 | 0.00 | 0.00 | 98 | 1023.5 |
| 20260902065338 | 64 | 127 | 1.0 | 2.0 | 0.00 | 0.00 | 0.00 | 98 | 1023.6 |
| 20260902064833 | 64 | 111 | 0.0 | 2.0 | 0.00 | 0.00 | 0.00 | 98 | 1023.5 |
| 20260902064330 | 64 | 46 | 2.0 | 3.0 | 0.00 | 0.00 | 0.00 | 98 | 1023.5 |
| 20260902063824 | 65 | 98 | 3.0 | 3.0 | 0.00 | 0.00 | 0.00 | 98 | 1023.6 |
| 20260902063319 | 65 | 54 | 1.0 | 2.0 | 0.00 | 0.00 | 0.00 | 98 | 1023.5 |
| 20260902062813 | 65 | 325 | 1.0 | 1.0 | 0.00 | 0.00 | 0.00 | 98 | 1023.8 |
| 20260902062308 | 65 | 107 | 3.0 | 3.0 | 0.00 | 0.00 | 0.00 | 98 | 1023.8 |
| 20260902061808 | 65 | 334 | 0.0 | 1.0 | 0.00 | 0.00 | 0.00 | 98 | 1023.6 |
| 20260902061303 | 65 | 179 | 1.0 | 2.0 | 0.00 | 0.00 | 0.00 | 98 | 1023.4 |
| 20260902060800 | 65 | 20 | 0.0 | 3.0 | 0.00 | 0.00 | 0.00 | 98 | 1023.4 |
| 20260902060255 | 65 | 60 | 2.0 | 6.0 | 0.00 | 0.00 | 0.00 | 98 | 1023.4 |
| 20260902055750 | 65 | 101 | 4.0 | 5.0 | 0.00 | 0.00 | 0.00 | 98 | 1023.6 |
| 20260902055246 | 65 | 101 | 0.0 | 6.0 | 0.00 | 0.00 | 0.00 | 98 | 1023.4 |
| 20260902054741 | 66 | 101 | 3.0 | 6.0 | 0.00 | 0.00 | 0.00 | 98 | 1023.8 |
| 20260902054236 | 66 | 115 | 4.0 | 6.0 | 0.00 | 0.00 | 0.00 | 98 | 1023.3 |
| 20260902053731 | 66 | 150 | 1.0 | 2.0 | 0.00 | 0.00 | 0.00 | 98 | 1023.3 |
| 20260902053226 | 66 | 118 | 1.0 | 3.0 | 0.00 | 0.00 | 0.00 | 98 | 1023.1 |
| 20260902052725 | 66 | 321 | 0.0 | 3.0 | 0.00 | 0.00 | 0.00 | 98 | 1023.2 |
| 20260902052221 | 66 | 52 | 1.0 | 2.0 | 0.00 | 0.00 | 0.00 | 98 | 1023.4 |
| 20260902051720 | 66 | 117 | 4.0 | 5.0 | 0.00 | 0.00 | 0.00 | 98 | 1023.3 |
| 20260902051214 | 66 | 110 | 1.0 | 2.0 | 0.00 | 0.00 | 0.00 | 98 | 1023.1 |
| 20260902050709 | 66 | 79 | 2.0 | 3.0 | 0.00 | 0.00 | 0.00 | 98 | 1023.3 |
| 20260902050204 | 66 | 74 | 0.0 | 3.0 | 0.00 | 0.00 | 0.00 | 98 | 1022.8 |
| 20260902045659 | 66 | 124 | 0.0 | 0.0 | 0.00 | 0.00 | 0.00 | 98 | 1022.9 |
| 20260902045155 | 66 | 348 | 0.0 | 1.0 | 0.00 | 0.00 | 0.00 | 98 | 1023.1 |
| 20260902044649 | 66 | 48 | 0.0 | 2.0 | 0.00 | 0.00 | 0.00 | 98 | 1023.1 |
| 20260902044140 | 66 | 87 | 1.0 | 3.0 | 0.00 | 0.00 | 0.00 | 98 | 1023.2 |
| 20260902043635 | 66 | 77 | 0.0 | 0.0 | 0.00 | 0.00 | 0.00 | 98 | 1022.9 |
| 20260902043131 | 66 | 64 | 0.0 | 2.0 | 0.00 | 0.00 | 0.00 | 98 | 1022.9 |
| 20260902042630 | 66 | 35 | 0.0 | 1.0 | 0.00 | 0.00 | 0.00 | 98 | 1022.7 |
| 20260902042125 | 66 | 41 | 3.0 | 3.0 | 0.00 | 0.00 | 0.00 | 98 | 1022.6 |
| 20260902041625 | 66 | 54 | 1.0 | 2.0 | 0.00 | 0.00 | 0.00 | 98 | 1022.6 |
| 20260902041120 | 66 | 47 | 1.0 | 2.0 | 0.00 | 0.00 | 0.00 | 98 | 1022.5 |
| 20260902040619 | 66 | 89 | 0.0 | 0.0 | 0.00 | 0.00 | 0.00 | 97 | 1022.7 |
| 20260902040114 | 66 | 12 | 0.0 | 0.0 | 0.00 | 0.00 | 0.00 | 97 | 1022.5 |
| 20260902035613 | 66 | 56 | 0.0 | 0.0 | 0.00 | 0.55 | 0.55 | 97 | 1022.5 |
| 20260902035108 | 66 | 115 | 0.0 | 1.0 | 0.00 | 0.55 | 0.55 | 97 | 1022.4 |
| 20260902034607 | 66 | 96 | 0.0 | 1.0 | 0.00 | 0.55 | 0.55 | 97 | 1022.2 |
| 20260902034101 | 66 | 57 | 0.0 | 2.0 | 0.00 | 0.55 | 0.55 | 97 | 1022.3 |
| 20260902033601 | 66 | 142 | 1.0 | 3.0 | 0.00 | 0.55 | 0.55 | 97 | 1022.5 |
| 20260902033055 | 66 | 144 | 2.0 | 5.0 | 0.00 | 0.55 | 0.55 | 97 | 1022.3 |
| 20260902032554 | 66 | 105 | 3.0 | 5.0 | 0.00 | 0.55 | 0.55 | 97 | 1022.5 |
| 20260902032049 | 66 | 68 | 3.0 | 3.0 | 0.00 | 0.55 | 0.55 | 97 | 1022.3 |
| 20260902031543 | 66 | 101 | 3.0 | 5.0 | 0.00 | 0.55 | 0.55 | 97 | 1022.2 |
| 20260902031040 | 66 | 116 | 3.0 | 3.0 | 0.00 | 0.55 | 0.55 | 97 | 1022.3 |
| 20260902030534 | 66 | 131 | 5.0 | 6.0 | 0.00 | 0.55 | 0.55 | 97 | 1022.3 |
| 20260902030034 | 67 | 52 | 0.0 | 1.0 | 0.00 | 0.55 | 0.55 | 97 | 1022.3 |
| 20260902025528 | 67 | 159 | 2.0 | 7.0 | 0.00 | 0.55 | 0.55 | 97 | 1022.5 |
| 20260902025024 | 66 | 128 | 3.0 | 6.0 | 0.00 | 0.55 | 0.55 | 97 | 1022.7 |
| 20260902024519 | 66 | 88 | 1.0 | 6.0 | 0.00 | 0.55 | 0.55 | 97 | 1022.6 |
| 20260902024014 | 66 | 143 | 5.0 | 6.0 | 0.00 | 0.55 | 0.55 | 97 | 1022.6 |